Weather History for CYXX - September, 2013

Change the Weather History Date:

Sunday, September 15, 2013

  Actual Average Record
Temperature  
Mean Temperature 62 °F -  
Max Temperature 68 °F 64 °F 87 °F (2014)
Min Temperature 55 °F 44 °F 41 °F (2006)
Degree Days  
Heating Degree Days 4    
Growing Degree Days 12 (Base 50)    
Moisture  
Dew Point 58 °F    
Average Humidity 96    
Maximum Humidity 100    
Minimum Humidity 78    
Precipitation  
Precipitation 0.20 in 0.16 in - ()
Sea Level Pressure  
Sea Level Pressure 29.75 in    
Wind  
Wind Speed 5 mph ()    
Max Wind Speed 22 mph    
Max Gust Speed 28 mph    
Visibility 2.8 miles    
Events Fog , Rain , Thunderstorm    
Averages and records for this station are not official NWS values.
T = Trace of Precipitation, MM = Missing Value Source: Averaged Metar Reports

Daily Weather History Graph

Daily Weather History Graph

Search for Another Location

Airport or City:

Trip Planner

Search our weather history database for the weather conditions in past years. The results will help you decide how hot, cold, wet, or windy it might be!

Date:

Astronomy

Sep. 15, 2013 Rise Set
Actual Time 6:46 AM PDT 7:21 PM PDT
Civil Twilight 6:14 AM PDT 7:53 PM PDT
Nautical Twilight 5:36 AM PDT 8:31 PM PDT
Astronomical Twilight 4:56 AM PDT 9:10 PM PDT
Moon 5:07 PM PDT (9/15) 2:13 AM PDT (9/15)
Length of Visible Light 13h 38m
Length of Day
12h 35m
Waxing Gibbous, 83% of the Moon is Illuminated
Sep 15
Waxing Gibbous
Sep 19
Full
Sep 26
Last Quarter
Oct 4
New
Oct 11
First Quarter

Hourly Weather History & Observations

Time (PDT) Temp. Dew Point Humidity Pressure Visibility Wind Dir Wind Speed Gust Speed Precip Events Conditions
12:00 AM 57.2 °F 57.2 °F 100% 29.76 in 0.2 mi Calm Calm - N/A Fog Fog
1:00 AM 55.4 °F 55.4 °F 100% 29.75 in 0.2 mi SSW 2.3 mph - N/A Fog Fog
2:00 AM 57.2 °F 57.2 °F 100% 29.75 in 0.2 mi SSW 3.5 mph - N/A Fog Fog
3:00 AM 55.4 °F 55.4 °F 100% 29.74 in 0.2 mi Variable 2.3 mph - N/A Fog Fog
4:00 AM 55.4 °F 55.4 °F 100% 29.73 in 0.2 mi Calm Calm - N/A Fog Fog
5:00 AM 57 °F 57 °F 98% 29.73 in 0 mi WSW 2.3 mph - - Fog Heavy Fog
5:00 AM 57.2 °F 57.2 °F 100% 29.72 in 0.2 mi West 2.3 mph - N/A Fog Fog
6:00 AM 57.2 °F 57.2 °F 100% 29.72 in 0.2 mi SSW 4.6 mph - N/A Fog Fog
6:56 AM 57.2 °F 57.2 °F 100% 29.73 in 0.2 mi SSW 4.6 mph - N/A Fog Fog
7:00 AM 57.2 °F 57.2 °F 100% 29.72 in 0.2 mi SSW 3.5 mph - N/A Fog Fog
8:00 AM 57.2 °F 57.2 °F 100% 29.73 in 0.2 mi SSW 4.6 mph - N/A Fog Fog
8:22 AM 57.2 °F 57.2 °F 100% 29.72 in 0.4 mi SSW 4.6 mph - N/A Fog Fog
9:00 AM 57.2 °F 57.2 °F 100% 29.72 in 0.4 mi WSW 3.5 mph - N/A Fog Fog
9:07 AM 57.2 °F 57.2 °F 100% 29.72 in 0.6 mi SW 2.3 mph - N/A   Mist
10:00 AM 57.2 °F 57.2 °F 100% 29.72 in 0.6 mi SW 5.8 mph - N/A   Mist
10:11 AM 57.2 °F 57.2 °F 100% 29.72 in 0.8 mi SSW 6.9 mph - N/A   Mist
11:00 AM 59 °F 59 °F 99% 29.72 in 1 mi SSW 6.9 mph - -   Mist
11:00 AM 59.0 °F 59.0 °F 100% 29.72 in 0.8 mi SSW 6.9 mph - N/A   Mist
11:45 AM 59.0 °F 59.0 °F 100% 29.72 in 1.0 mi SSW 6.9 mph - N/A   Overcast
12:00 PM 59.0 °F 59.0 °F 100% 29.75 in 1.5 mi SW 13.8 mph - N/A   Overcast
12:39 PM 62.6 °F 60.8 °F 94% 29.75 in 2.5 mi WSW 8.1 mph - N/A   Overcast
1:00 PM 62.6 °F 59.0 °F 88% 29.77 in 3.0 mi SW 11.5 mph - N/A Rain Light Rain Showers
2:00 PM 64.4 °F 59.0 °F 83% 29.76 in 5.0 mi North 5.8 mph - N/A   Mostly Cloudy
3:00 PM 66.2 °F 59.0 °F 78% 29.72 in 20.0 mi Calm Calm - N/A   Mostly Cloudy
4:00 PM 68.0 °F 60.8 °F 78% 29.72 in 25.0 mi SW 21.9 mph 27.6 mph N/A   Mostly Cloudy
5:00 PM 63 °F 58 °F 80% 29.75 in 28 mi SSW 17.3 mph - -   Partly Cloudy
5:00 PM 62.6 °F 59.0 °F 88% 29.75 in 30.0 mi SSW 18.4 mph 25.3 mph N/A   Mostly Cloudy
5:54 PM 62.6 °F 59.0 °F 88% 29.76 in 30.0 mi WSW 9.2 mph - N/A Rain Light Rain Showers
6:00 PM 62.6 °F 59.0 °F 88% 29.75 in 30.0 mi West 5.8 mph - N/A Rain Light Rain Showers
7:00 PM 60.8 °F 59.0 °F 94% 29.78 in 6.0 mi WSW 4.6 mph - N/A Rain Light Rain Showers
7:28 PM 60.8 °F 59.0 °F 94% 29.79 in 6.0 mi WSW 9.2 mph - N/A Rain , Thunderstorm Light Thunderstorms and Rain
7:47 PM 60.8 °F 60.8 °F 100% 29.80 in 4.0 mi SW 11.5 mph - N/A Rain , Thunderstorm Thunderstorms and Rain
8:00 PM 60.8 °F 60.8 °F 100% 29.80 in 6.0 mi SW 10.4 mph - N/A Rain , Thunderstorm Thunderstorms and Rain
8:18 PM 60.8 °F 60.8 °F 100% 29.81 in 6.0 mi WSW 5.8 mph - N/A Rain Light Rain Showers
9:00 PM 60.8 °F 59.0 °F 94% 29.80 in 6.0 mi WSW 5.8 mph - N/A Rain Light Rain Showers
10:00 PM 60.8 °F 60.8 °F 100% 29.79 in 6.0 mi West 6.9 mph - N/A Rain Light Rain Showers
11:00 PM 61 °F 60 °F 97% 29.79 in 6 mi ENE 4.6 mph - - Rain Light Rain Showers
11:00 PM 60.8 °F 60.8 °F 100% 29.79 in 6.0 mi East 6.9 mph - N/A Rain Light Rain Showers